This is the latest recevied weather packets stored in our database for station/object JR5YHL-13. If no packets are shown the sender has not sent any weather packets the latest 10 day(s).
| Time | Temp. | Humidity | Pressure | Rain* | Wind** | Luminosity | Snow |
|---|---|---|---|---|---|---|---|
| 1777635304 | 15° C | 69% | 1006.3 hPa | 0 mm | - | - | - |
| 1777634707 | 15° C | 67% | 1006.3 hPa | 0 mm | - | - | - |
| 1777634109 | 15.56° C | 66% | 1006.1 hPa | 0 mm | - | - | - |
| 1777633511 | 15.56° C | 63% | 1005.8 hPa | 0 mm | - | - | - |
| 1777632914 | 15.56° C | 63% | 1005.6 hPa | 0 mm | - | - | - |
| 1777632316 | 15.56° C | 61% | 1005.4 hPa | 0 mm | - | - | - |
| 1777631718 | 16.11° C | 57% | 1005.3 hPa | 0 mm | - | - | - |
| 1777631121 | 16.11° C | 56% | 1005.3 hPa | 0 mm | - | - | - |
| 1777630523 | 16.67° C | 50% | 1005.3 hPa | 0 mm | - | - | - |
| 1777629926 | 16.67° C | 46% | 1005.3 hPa | 0 mm | - | - | - |
| 1777629328 | 16.67° C | 48% | 1005.3 hPa | 0 mm | - | - | - |
| 1777628731 | 16.67° C | 46% | 1005.2 hPa | 0 mm | - | - | - |
| 1777628133 | 16.67° C | 46% | 1005.1 hPa | 0 mm | - | - | - |
| 1777627535 | 16.67° C | 47% | 1005 hPa | 0 mm | - | - | - |
| 1777626938 | 16.67° C | 46% | 1004.8 hPa | 0 mm | - | - | - |
| 1777626340 | 16.67° C | 45% | 1004.7 hPa | 0 mm | - | - | - |
| 1777625743 | 17.22° C | 43% | 1004.7 hPa | 0 mm | - | - | - |
| 1777625145 | 17.22° C | 42% | 1004.5 hPa | 0 mm | - | - | - |
| 1777624548 | 17.22° C | 41% | 1004.2 hPa | 0 mm | - | - | - |
| 1777623950 | 17.22° C | 41% | 1004.1 hPa | 0 mm | - | - | - |
| 1777623353 | 17.78° C | 40% | 1004 hPa | 0 mm | - | - | - |
| 1777622755 | 18.33° C | 39% | 1004.1 hPa | 0 mm | - | - | - |
| 1777622158 | 17.78° C | 39% | 1004.1 hPa | 0 mm | - | - | - |
| 1777621560 | 17.78° C | 40% | 1004.2 hPa | 0 mm | - | - | - |
| 1777620962 | 17.22° C | 40% | 1004.1 hPa | 0 mm | - | - | - |
* Rain latest hour (hover to see other rain measurements)
** Current wind speed in m/s (hover to see current wind gust speed)